Weather History for Farmington, MO

Change the Weather History Date:

Wednesday, May 15, 2013

  Actual Average Record
Temperature  
Mean Temperature 75 °F -  
Max Temperature 86 °F 73 °F 87 °F (2001)
Min Temperature 64 °F 52 °F 37 °F (1997)
Cooling Degree Days 10    
Growing Degree Days 25 (Base 50)    
Moisture  
Dew Point 57 °F    
Average Humidity 54    
Maximum Humidity 78    
Minimum Humidity 40    
Precipitation  
Precipitation 0.00 in - - ()
Sea Level Pressure  
Sea Level Pressure 29.97 in    
Wind  
Wind Speed 10 mph (SSW)    
Max Wind Speed 16 mph    
Max Gust Speed 22 mph    
Visibility 10 miles    
Events      
Averages and records for this station are not official NWS values.
T = Trace of Precipitation, MM = Missing Value Source: NWS Daily Summary

Daily Weather History Graph

Daily Weather History Graph

Search for Another Location

Airport:

Trip Planner

Search our weather history database for the weather conditions in past years. The results will help you decide how hot, cold, wet, or windy it might be!

Date:

Astronomy

May. 15, 2013 Rise Set
Actual Time 5:51 AM CDT 8:04 PM CDT
Civil Twilight 5:22 AM CDT 8:34 PM CDT
Nautical Twilight 4:46 AM CDT 9:10 PM CDT
Astronomical Twilight 4:06 AM CDT 9:50 PM CDT
Moon 10:26 AM CDT (5/15) No Moon Set
Length of Visible Light 15h 12m
Length of Day
14h 13m
Waxing Crescent, 27% of the Moon is Illuminated
May 15
Waxing Crescent
May 17
First Quarter
May 24
Full
May 31
Last Quarter
Jun 8
New

Hourly Weather History & Observations

Time (CDT) Temp. Heat Index Dew Point Humidity Pressure Visibility Wind Dir Wind Speed Gust Speed Precip Events Conditions
12:15 AM 75.2 °F - 50.0 °F 41% 29.97 in 10.0 mi SW 12.7 mph 18.4 mph N/A   Clear
12:35 AM 75.2 °F - 50.0 °F 41% 29.97 in 10.0 mi SW 8.1 mph - N/A   Clear
12:55 AM 73.4 °F - 50.0 °F 44% 29.98 in 10.0 mi SW 9.2 mph - N/A   Clear
1:15 AM 71.6 °F - 51.8 °F 50% 29.98 in 10.0 mi SW 10.4 mph - N/A   Clear
1:35 AM 71.6 °F - 51.8 °F 50% 29.98 in 10.0 mi SW 11.5 mph - N/A   Clear
1:55 AM 71.6 °F - 51.8 °F 50% 29.98 in 10.0 mi SW 9.2 mph - N/A   Clear
2:15 AM 71.6 °F - 51.8 °F 50% 29.98 in 10.0 mi WSW 9.2 mph 17.3 mph N/A   Clear
2:35 AM 71.6 °F - 53.6 °F 53% 29.98 in 10.0 mi WSW 11.5 mph 20.7 mph N/A   Clear
2:55 AM 71.6 °F - 53.6 °F 53% 29.98 in 10.0 mi WSW 11.5 mph - N/A   Clear
3:15 AM 71.6 °F - 53.6 °F 53% 29.98 in 10.0 mi SW 11.5 mph 17.3 mph N/A   Clear
3:35 AM 71.6 °F - 53.6 °F 53% 29.98 in 10.0 mi WSW 10.4 mph 16.1 mph N/A   Clear
3:55 AM 69.8 °F - 53.6 °F 56% 29.99 in 10.0 mi WSW 9.2 mph - N/A   Clear
4:15 AM 69.8 °F - 51.8 °F 53% 29.99 in 10.0 mi WSW 10.4 mph 17.3 mph N/A   Clear
4:35 AM 69.8 °F - 51.8 °F 53% 29.99 in 10.0 mi SW 10.4 mph - N/A   Clear
4:55 AM 69.8 °F - 51.8 °F 53% 30.00 in 10.0 mi WSW 9.2 mph - N/A   Clear
5:15 AM 69.8 °F - 51.8 °F 53% 30.00 in 10.0 mi SW 10.4 mph - N/A   Clear
5:35 AM 68.0 °F - 51.8 °F 56% 30.00 in 10.0 mi SSW 8.1 mph - N/A   Clear
5:55 AM 66.2 °F - 51.8 °F 60% 30.01 in 10.0 mi Calm Calm - N/A   Clear
6:15 AM 64.4 °F - 51.8 °F 64% 30.01 in 10.0 mi SSW 3.5 mph - N/A   Clear
6:35 AM 64.4 °F - 51.8 °F 64% 30.02 in 10.0 mi Calm Calm - N/A   Clear
6:55 AM 66.2 °F - 51.8 °F 60% 30.02 in 10.0 mi Calm Calm - N/A   Clear
7:15 AM 66.2 °F - 53.6 °F 64% 30.02 in 10.0 mi Calm Calm - N/A   Clear
7:35 AM 68.0 °F - 53.6 °F 60% 30.02 in 10.0 mi SSW 6.9 mph - N/A   Clear
7:55 AM 69.8 °F - 53.6 °F 56% 30.03 in 10.0 mi SSW 5.8 mph - N/A   Clear
8:15 AM 71.6 °F - 53.6 °F 53% 30.03 in 10.0 mi SW 3.5 mph - N/A   Clear
8:35 AM 73.4 °F - 53.6 °F 50% 30.03 in 10.0 mi SW 11.5 mph 16.1 mph N/A   Clear
8:55 AM 73.4 °F - 53.6 °F 50% 30.03 in 10.0 mi SW 10.4 mph 19.6 mph N/A   Clear
9:15 AM 75.2 °F - 53.6 °F 47% 30.02 in 10.0 mi WSW 8.1 mph - N/A   Clear
9:35 AM 75.2 °F - 55.4 °F 50% 30.02 in 10.0 mi SW 12.7 mph - N/A   Clear
9:55 AM 77.0 °F - 55.4 °F 47% 30.02 in 10.0 mi WSW 15.0 mph - N/A   Clear
10:15 AM 77.0 °F - 55.4 °F 47% 30.02 in 10.0 mi WSW 8.1 mph - N/A   Clear
10:35 AM 78.8 °F - 57.2 °F 47% 30.02 in 10.0 mi WSW 12.7 mph - N/A   Clear
10:55 AM 78.8 °F - 57.2 °F 47% 30.02 in 10.0 mi WSW 10.4 mph 18.4 mph N/A   Clear
11:15 AM 80.6 °F 81.1 °F 59.0 °F 48% 30.02 in 10.0 mi West 4.6 mph - N/A   Clear
11:35 AM 80.6 °F 80.8 °F 57.2 °F 45% 30.00 in 10.0 mi SW 4.6 mph - N/A   Clear
11:55 AM 82.4 °F 82.0 °F 57.2 °F 42% 30.00 in 10.0 mi SSW 6.9 mph - N/A   Clear
12:15 PM 82.4 °F 82.0 °F 57.2 °F 42% 29.99 in 10.0 mi SSW 8.1 mph 16.1 mph N/A   Clear
12:35 PM 82.4 °F 82.0 °F 57.2 °F 42% 29.98 in 10.0 mi South 6.9 mph - N/A   Clear
12:55 PM 84.2 °F 84.4 °F 60.8 °F 45% 29.97 in 10.0 mi South 5.8 mph - N/A   Clear
1:15 PM 84.2 °F 84.4 °F 60.8 °F 45% 29.97 in 10.0 mi South 9.2 mph - N/A   Clear
1:35 PM 86.0 °F 86.1 °F 60.8 °F 43% 29.96 in 10.0 mi SSW 10.4 mph 16.1 mph N/A   Clear
1:55 PM 86.0 °F 86.1 °F 60.8 °F 43% 29.96 in 10.0 mi SW 9.2 mph 17.3 mph N/A   Clear
2:15 PM 86.0 °F 85.4 °F 59.0 °F 40% 29.95 in 10.0 mi SSW 16.1 mph 21.9 mph N/A   Clear
2:35 PM 86.0 °F 85.4 °F 59.0 °F 40% 29.95 in 10.0 mi SSW 11.5 mph - N/A   Clear
2:55 PM 84.2 °F 83.8 °F 59.0 °F 42% 29.94 in 10.0 mi SSW 11.5 mph 19.6 mph N/A   Clear
3:15 PM 84.2 °F 84.4 °F 60.8 °F 45% 29.94 in 10.0 mi South 12.7 mph - N/A   Clear
3:35 PM 84.2 °F 84.4 °F 60.8 °F 45% 29.93 in 10.0 mi South 10.4 mph - N/A   Clear
3:55 PM 84.2 °F 84.4 °F 60.8 °F 45% 29.92 in 10.0 mi South 11.5 mph - N/A   Clear
4:15 PM 84.2 °F 84.4 °F 60.8 °F 45% 29.92 in 10.0 mi South 12.7 mph - N/A   Clear
4:35 PM 82.4 °F 82.9 °F 60.8 °F 48% 29.92 in 10.0 mi SSW 11.5 mph 16.1 mph N/A   Scattered Clouds
4:55 PM 82.4 °F 82.9 °F 60.8 °F 48% 29.92 in 10.0 mi SSW 13.8 mph - N/A   Partly Cloudy
5:15 PM 82.4 °F 83.4 °F 62.6 °F 51% 29.92 in 10.0 mi South 11.5 mph - N/A   Clear
5:35 PM 82.4 °F 82.9 °F 60.8 °F 48% 29.91 in 10.0 mi South 11.5 mph - N/A   Clear
5:55 PM 82.4 °F 83.4 °F 62.6 °F 51% 29.91 in 10.0 mi SSW 13.8 mph - N/A   Clear
6:15 PM 80.6 °F 81.5 °F 60.8 °F 51% 29.91 in 10.0 mi SSW 15.0 mph - N/A   Clear
6:35 PM 80.6 °F 81.5 °F 60.8 °F 51% 29.91 in 10.0 mi South 9.2 mph 17.3 mph N/A   Clear
6:55 PM 78.8 °F - 60.8 °F 54% 29.92 in 10.0 mi SSW 16.1 mph 20.7 mph N/A   Clear
7:15 PM 78.8 °F - 60.8 °F 54% 29.92 in 10.0 mi SSW 13.8 mph 19.6 mph N/A   Clear
7:35 PM 77.0 °F - 62.6 °F 61% 29.92 in 10.0 mi SSW 11.5 mph - N/A   Clear
7:55 PM 75.2 °F - 62.6 °F 65% 29.93 in 10.0 mi SSW 12.7 mph 20.7 mph N/A   Clear
8:15 PM 75.2 °F - 62.6 °F 65% 29.93 in 10.0 mi SSW 11.5 mph 17.3 mph N/A   Clear
8:35 PM 73.4 °F - 62.6 °F 69% 29.93 in 10.0 mi SSW 10.4 mph - N/A   Clear
8:55 PM 73.4 °F - 62.6 °F 69% 29.94 in 10.0 mi SSW 10.4 mph - N/A   Clear
9:15 PM 73.4 °F - 62.6 °F 69% 29.95 in 10.0 mi South 6.9 mph - N/A   Clear
9:35 PM 71.6 °F - 62.6 °F 73% 29.95 in 10.0 mi South 9.2 mph - N/A   Clear
9:55 PM 71.6 °F - 62.6 °F 73% 29.95 in 10.0 mi South 6.9 mph - N/A   Clear
10:15 PM 71.6 °F - 62.6 °F 73% 29.95 in 10.0 mi South 6.9 mph - N/A   Clear
10:35 PM 71.6 °F - 62.6 °F 73% 29.95 in 10.0 mi South 9.2 mph - N/A   Clear
10:55 PM 69.8 °F - 62.6 °F 78% 29.94 in 10.0 mi SSW 6.9 mph - N/A   Clear
11:15 PM 69.8 °F - 62.6 °F 78% 29.94 in 10.0 mi SSW 8.1 mph - N/A   Clear
11:55 PM 69.8 °F - 62.6 °F 78% 29.93 in 10.0 mi SSW 11.5 mph - N/A   Clear